Погода в Белоозёрске

Беларусь     52°28′10″N   25°10′29″E
темп.,
°C
ветер,
м/с
пор.,
м/с
влажн.,
%
обл.,
%
осадки,
мм/ч
давл.,
гПа
погр.,
м
28 июля, ср
ср2800:00+18ююз229598 0.8 101333
03:00+18зюз34937 0.8 101355
06:00+18зюз3493100 0.0 101360
09:00+22з358088 0.0 1013251
12:00+27зюз355443 0.1 10131312
15:00+29зюз454185 0.1 10122132
18:00+29юз3449100 0.0 10111775
21:00+23ююв0164100 0.0 101111
29 июля, чт
чт2900:00+21ююв22714 0.0 101118
03:00+19юв348479 0.2 101056
06:00+18ююз229176 0.2 100930
09:00+21сз228785 1.6 1009282
12:00+25сз446878 0.1 10091033
15:00+24сз677098 0.1 10101034
18:00+24з47660 0.0 1009950
21:00+22зсз496762 0.1 1010229
30 июля, пт
пт3000:00+21зсз35610 0.0 1011127
03:00+18зюз23673 0.0 101151
06:00+16зюз34785 0.0 101165
09:00+21зюз47585 0.0 1011357
12:00+25зюз584497 0.0 10111668
15:00+26зюз694137 0.0 10092346
18:00+27зюз59446 0.0 10082338
21:00+21зюз3461100 0.0 100855
31 июля, сб
сб3100:00+18з336220 0.0 100947
03:00+17юз226717 0.0 100925
06:00+16юз2269100 0.0 100923
09:00+22ю225873 0.0 1008210
12:00+27ююв345268 0.0 1007815
15:00+29ю4549100 0.0 10061792
18:00+17сз61094100 5.6 1006297
21:00+18юз2393100 5.8 1007103
1 августа, вс
вс100:00+17юз3797100 0.2 1008157
03:00+15зюз39922 0.2 1008162
06:00+13з37890 0.0 1009115
09:00+18з356920 0.0 1010286
12:00+23зюз454998 0.0 10101368
15:00+25зюз344511 0.0 10101650
18:00+24зсз1251100 0.0 1008806
21:00+18ссз3380100 1.0 100846